Location: Unspecified
(0.0000°N, 0.0000°E)
Time: 14:37:11
(UTC+00:00)

COSMOS 1275 DEB - Pass Details

Date: 23 February 2026
Orbit: 902 x 1038 km, 83.0° (Epoch: 19 November)

Event Time Altitude Azimuth Distance (km) Brightness Sun altitude
Rises 03:48:28 0° 169° (S) 3,715 ? -35.6°
Reaches altitude 10° 03:51:11 10° 162° (SSE) 2,749 ? -35.0°
Maximum altitude 03:57:03 41° 93° (E) 1,362 ? -33.5°
Drops below altitude 10° 04:02:44 10° 24° (NNE) 2,663 ? -32.1°
Sets 04:05:18 0° 18° (NNE) 3,588 ? -31.5°
